"read_dt","SO2 (ppb)","flags","PMT voltage (V)","lamp voltage (V)","lamp intensity (Hz)","internal temp (C)","react chamber temp (C)","sample flow (l/min)","pres (mmHg)","SO2 bkg (ppb)","SO2 coefficient"
2015-04-13 00:00:00,1939E-3,5C000000,-0724,0834,12078,026.5,045.4,0.476,735.5,01.18,0.508
2015-04-13 00:01:00,1747E-3,5C000000,-0724,0834,12035,026.5,045.4,0.476,735.5,01.18,0.508
2015-04-13 00:02:00,1765E-3,5C000000,-0724,0835,12032,026.5,045.4,0.476,735.5,01.18,0.508
2015-04-13 00:03:00,1819E-3,5C000000,-0724,0834,12093,026.5,045.4,0.476,735.4,01.18,0.508
2015-04-13 00:04:00,1727E-3,5C000000,-0724,0835,12180,026.5,045.4,0.476,735.5,01.18,0.508
2015-04-13 00:05:00,1675E-3,5C000000,-0724,0835,12187,026.5,045.4,0.476,735.5,01.18,0.508
2015-04-13 00:06:00,1804E-3,5C000000,-0724,0835,12151,026.4,045.4,0.476,735.5,01.18,0.508
2015-04-13 00:07:00,1771E-3,5C000000,-0724,0834,12091,026.5,045.4,0.476,735.5,01.18,0.508
2015-04-13 00:08:00,1864E-3,5C000000,-0724,0835,12070,026.5,045.4,0.476,735.5,01.18,0.508
2015-04-13 00:09:00,1758E-3,5C000000,-0724,0835,12296,026.4,045.4,0.476,735.4,01.18,0.508
2015-04-13 00:10:00,1846E-3,5C000000,-0724,0835,12195,026.4,045.4,0.476,735.4,01.18,0.508
2015-04-13 00:11:00,1708E-3,5C000000,-0724,0835,12210,026.4,045.4,0.476,735.4,01.18,0.508
2015-04-13 00:12:00,1772E-3,5C000000,-0724,0835,12190,026.4,045.4,0.476,735.4,01.18,0.508
2015-04-13 00:13:00,1783E-3,5C000000,-0724,0835,12215,026.4,045.4,0.476,735.4,01.18,0.508
2015-04-13 00:14:00,1706E-3,5C000000,-0724,0835,12231,026.4,045.4,0.476,735.4,01.18,0.508
2015-04-13 00:15:00,1681E-3,5C000000,-0724,0835,12141,026.4,045.4,0.476,735.4,01.18,0.508
2015-04-13 00:16:00,1797E-3,5C000000,-0724,0835,12054,026.4,045.4,0.476,735.4,01.18,0.508
2015-04-13 00:17:00,1832E-3,5C000000,-0724,0834,12272,026.4,045.4,0.476,735.4,01.18,0.508
2015-04-13 00:18:00,1866E-3,5C000000,-0724,0835,12159,026.3,045.4,0.476,735.4,01.18,0.508
2015-04-13 00:19:00,1921E-3,5C000000,-0724,0835,12227,026.4,045.4,0.476,735.4,01.18,0.508
2015-04-13 00:20:00,1824E-3,5C000000,-0724,0836,12250,026.4,045.4,0.476,735.4,01.18,0.508
2015-04-13 00:21:00,1817E-3,5C000000,-0724,0835,12228,026.4,045.4,0.476,735.4,01.18,0.508
2015-04-13 00:22:00,1737E-3,5C000000,-0724,0835,12031,026.4,045.4,0.476,735.4,01.18,0.508
2015-04-13 00:23:00,1683E-3,5C000000,-0724,0835,12207,026.4,045.4,0.476,735.4,01.18,0.508
2015-04-13 00:24:00,1755E-3,5C000000,-0724,0835,12247,026.4,045.4,0.476,735.4,01.18,0.508
2015-04-13 00:25:00,1812E-3,5C000000,-0724,0835,12157,026.4,045.4,0.476,735.4,01.18,0.508
2015-04-13 00:26:00,1773E-3,5C000000,-0724,0835,12135,026.4,045.4,0.476,735.4,01.18,0.508
2015-04-13 00:27:00,1661E-3,5C000000,-0724,0835,12075,026.4,045.4,0.476,735.4,01.18,0.508
2015-04-13 00:28:00,1703E-3,5C000000,-0724,0835,12183,026.4,045.4,0.476,735.4,01.18,0.508
2015-04-13 00:29:00,1804E-3,5C000000,-0724,0834,12272,026.4,045.4,0.476,735.4,01.18,0.508
2015-04-13 00:30:00,1657E-3,5C000000,-0724,0835,12133,026.4,045.4,0.476,735.4,01.18,0.508
2015-04-13 00:31:00,1738E-3,5C000000,-0724,0835,12081,026.4,045.4,0.476,735.4,01.18,0.508
2015-04-13 00:32:00,1785E-3,5C000000,-0724,0835,12288,026.4,045.4,0.476,735.4,01.18,0.508
2015-04-13 00:33:00,1793E-3,5C000000,-0724,0835,11991,026.4,045.4,0.476,735.4,01.18,0.508
2015-04-13 00:34:00,1839E-3,5C000000,-0724,0835,12209,026.4,045.4,0.476,735.4,01.18,0.508
2015-04-13 00:35:00,1756E-3,5C000000,-0724,0835,12059,026.4,045.4,0.476,735.4,01.18,0.508
2015-04-13 00:36:00,1880E-3,5C000000,-0724,0835,12069,026.4,045.4,0.476,735.4,01.18,0.508
2015-04-13 00:37:00,1808E-3,5C000000,-0724,0835,12045,026.4,045.4,0.476,735.4,01.18,0.508
2015-04-13 00:38:00,1782E-3,5C000000,-0724,0835,12241,026.4,045.4,0.476,735.4,01.18,0.508
2015-04-13 00:39:00,1863E-3,5C000000,-0724,0835,11974,026.4,045.4,0.476,735.4,01.18,0.508
2015-04-13 00:40:00,1802E-3,5C000000,-0724,0835,12239,026.4,045.4,0.476,735.4,01.18,0.508
2015-04-13 00:41:00,1824E-3,5C000000,-0724,0835,12169,026.4,045.4,0.476,735.3,01.18,0.508
2015-04-13 00:42:00,1607E-3,5C000000,-0724,0835,12151,026.4,045.4,0.476,735.3,01.18,0.508
2015-04-13 00:43:00,1827E-3,5C000000,-0724,0836,12080,026.4,045.4,0.476,735.4,01.18,0.508
2015-04-13 00:44:00,1882E-3,5C000000,-0724,0835,12059,026.3,045.4,0.476,735.4,01.18,0.508
2015-04-13 00:45:00,1783E-3,5C000000,-0724,0835,12202,026.3,045.4,0.476,735.4,01.18,0.508
2015-04-13 00:46:00,1834E-3,5C000000,-0724,0835,12183,026.4,045.4,0.476,735.3,01.18,0.508
2015-04-13 00:47:00,1785E-3,5C000000,-0724,0834,12217,026.4,045.4,0.476,735.4,01.18,0.508
2015-04-13 00:48:00,1968E-3,5C000000,-0724,0834,12208,026.4,045.4,0.476,735.3,01.18,0.508
2015-04-13 00:49:00,1875E-3,5C000000,-0724,0835,12079,026.4,045.4,0.476,735.4,01.18,0.508
2015-04-13 00:50:00,1834E-3,5C000000,-0724,0835,12198,026.4,045.4,0.476,735.4,01.18,0.508
2015-04-13 00:51:00,1888E-3,5C000000,-0724,0834,12059,026.4,045.4,0.476,735.3,01.18,0.508
2015-04-13 00:52:00,1788E-3,5C000000,-0724,0835,12047,026.4,045.4,0.476,735.4,01.18,0.508
2015-04-13 00:53:00,1793E-3,5C000000,-0724,0835,12073,026.4,045.4,0.476,735.4,01.18,0.508
2015-04-13 00:54:00,1849E-3,5C000000,-0724,0835,12143,026.4,045.4,0.476,735.4,01.18,0.508
2015-04-13 00:55:00,1774E-3,5C000000,-0724,0834,12130,026.4,045.4,0.476,735.4,01.18,0.508
2015-04-13 00:56:00,1763E-3,5C000000,-0724,0834,12111,026.4,045.4,0.476,735.4,01.18,0.508
2015-04-13 00:57:00,1827E-3,5C000000,-0724,0835,12208,026.4,045.4,0.476,735.4,01.18,0.508
2015-04-13 00:58:00,1881E-3,5C000000,-0724,0835,12109,026.4,045.4,0.476,735.4,01.18,0.508
2015-04-13 00:59:00,1777E-3,5C000000,-0724,0836,12113,026.4,045.4,0.476,735.4,01.18,0.508
2015-04-13 01:00:00,1720E-3,5C000000,-0724,0836,12052,026.4,045.4,0.476,735.4,01.18,0.508
2015-04-13 01:01:00,1985E-3,5C000000,-0724,0835,12190,026.4,045.4,0.476,735.4,01.18,0.508
2015-04-13 01:02:00,1828E-3,5C000000,-0724,0834,12067,026.4,045.4,0.476,735.4,01.18,0.508
2015-04-13 01:03:00,1787E-3,5C000000,-0724,0835,12187,026.4,045.4,0.476,735.4,01.18,0.508
2015-04-13 01:04:00,1853E-3,5C000000,-0724,0834,12283,026.4,045.4,0.476,735.4,01.18,0.508
2015-04-13 01:05:00,1704E-3,5C000000,-0724,0835,12107,026.4,045.4,0.476,735.4,01.18,0.508
2015-04-13 01:06:00,1739E-3,5C000000,-0724,0834,12157,026.4,045.4,0.476,735.4,01.18,0.508
2015-04-13 01:07:00,1883E-3,5C000000,-0724,0835,12197,026.4,045.4,0.476,735.4,01.18,0.508
2015-04-13 01:08:00,1846E-3,5C000000,-0724,0835,12212,026.4,045.4,0.476,735.3,01.18,0.508
2015-04-13 01:09:00,1819E-3,5C000000,-0724,0835,12073,026.4,045.4,0.476,735.3,01.18,0.508
2015-04-13 01:10:00,1887E-3,5C000000,-0724,0835,12229,026.4,045.4,0.476,735.3,01.18,0.508
2015-04-13 01:11:00,1701E-3,5C000000,-0724,0835,12056,026.5,045.4,0.476,735.3,01.18,0.508
2015-04-13 01:12:00,1756E-3,5C000000,-0724,0835,12185,026.4,045.4,0.476,735.3,01.18,0.508
2015-04-13 01:13:00,1855E-3,5C000000,-0724,0835,12161,026.4,045.4,0.476,735.3,01.18,0.508
2015-04-13 01:14:00,1831E-3,5C000000,-0724,0835,12179,026.4,045.4,0.476,735.3,01.18,0.508
2015-04-13 01:15:00,1932E-3,5C000000,-0724,0835,12140,026.4,045.4,0.476,735.3,01.18,0.508
2015-04-13 01:16:00,1807E-3,5C000000,-0724,0835,12173,026.4,045.4,0.476,735.3,01.18,0.508
2015-04-13 01:17:00,1798E-3,5C000000,-0724,0835,12243,026.4,045.4,0.476,735.3,01.18,0.508
2015-04-13 01:18:00,1738E-3,5C000000,-0724,0835,12226,026.4,045.4,0.476,735.3,01.18,0.508
2015-04-13 01:19:00,1827E-3,5C000000,-0724,0835,12068,026.4,045.4,0.476,735.3,01.18,0.508
2015-04-13 01:20:00,1861E-3,5C000000,-0724,0835,12206,026.4,045.4,0.476,735.3,01.18,0.508
2015-04-13 01:21:00,1782E-3,5C000000,-0724,0835,12052,026.4,045.4,0.476,735.3,01.18,0.508
2015-04-13 01:22:00,1767E-3,5C000000,-0724,0836,12212,026.5,045.4,0.476,735.3,01.18,0.508
2015-04-13 01:23:00,1856E-3,5C000000,-0724,0835,12182,026.4,045.4,0.475,735.3,01.18,0.508
2015-04-13 01:24:00,1733E-3,5C000000,-0724,0835,12291,026.4,045.4,0.476,735.4,01.18,0.508
2015-04-13 01:25:00,1667E-3,5C000000,-0724,0836,12076,026.4,045.4,0.476,735.4,01.18,0.508
2015-04-13 01:26:00,1914E-3,5C000000,-0724,0835,12066,026.4,045.4,0.476,735.3,01.18,0.508
2015-04-13 01:27:00,1970E-3,5C000000,-0724,0835,12266,026.5,045.4,0.476,735.3,01.18,0.508
2015-04-13 01:28:00,1788E-3,5C000000,-0724,0835,12134,026.5,045.4,0.476,735.3,01.18,0.508
2015-04-13 01:29:00,1806E-3,5C000000,-0724,0835,12063,026.5,045.4,0.476,735.3,01.18,0.508
2015-04-13 01:30:00,1844E-3,5C000000,-0724,0835,12179,026.5,045.4,0.476,735.3,01.18,0.508
2015-04-13 01:31:00,1756E-3,5C000000,-0724,0835,12283,026.5,045.4,0.476,735.3,01.18,0.508
2015-04-13 01:32:00,1786E-3,5C000000,-0724,0834,12135,026.5,045.4,0.476,735.3,01.18,0.508
2015-04-13 01:33:00,1655E-3,5C000000,-0724,0835,12207,026.5,045.4,0.476,735.3,01.18,0.508
2015-04-13 01:34:00,1804E-3,5C000000,-0724,0835,12060,026.5,045.4,0.475,735.3,01.18,0.508
2015-04-13 01:35:00,1846E-3,5C000000,-0724,0835,12039,026.5,045.4,0.476,735.3,01.18,0.508
2015-04-13 01:36:00,1799E-3,5C000000,-0724,0835,12085,026.5,045.4,0.476,735.3,01.18,0.508
2015-04-13 01:37:00,1646E-3,5C000000,-0724,0835,12218,026.5,045.4,0.476,735.3,01.18,0.508
2015-04-13 01:38:00,1727E-3,5C000000,-0724,0835,12105,026.5,045.4,0.476,735.3,01.18,0.508
2015-04-13 01:39:00,1830E-3,5C000000,-0724,0835,12220,026.5,045.4,0.476,735.2,01.18,0.508
2015-04-13 01:40:00,1745E-3,5C000000,-0724,0836,12132,026.5,045.4,0.476,735.2,01.18,0.508
2015-04-13 01:41:00,1779E-3,5C000000,-0724,0835,12075,026.5,045.4,0.476,735.2,01.18,0.508
2015-04-13 01:42:00,1725E-3,5C000000,-0724,0835,12106,026.5,045.4,0.476,735.2,01.18,0.508
2015-04-13 01:43:00,1694E-3,5C000000,-0724,0835,12120,026.5,045.4,0.476,735.2,01.18,0.508
2015-04-13 01:44:00,1834E-3,5C000000,-0724,0834,12360,026.5,045.4,0.476,735.2,01.18,0.508
2015-04-13 01:45:00,1819E-3,5C000000,-0724,0835,12295,026.5,045.4,0.475,735.2,01.18,0.508
2015-04-13 01:46:00,1723E-3,5C000000,-0724,0835,12159,026.5,045.4,0.476,735.2,01.18,0.508
2015-04-13 01:47:00,1798E-3,5C000000,-0724,0835,12276,026.5,045.4,0.476,735.2,01.18,0.508
2015-04-13 01:48:00,1702E-3,5C000000,-0724,0835,12180,026.5,045.4,0.476,735.2,01.18,0.508
2015-04-13 01:49:00,1756E-3,5C000000,-0724,0835,12181,026.5,045.4,0.475,735.2,01.18,0.508
2015-04-13 01:50:00,1767E-3,5C000000,-0724,0836,12109,026.5,045.4,0.475,735.2,01.18,0.508
2015-04-13 01:51:00,1775E-3,5C000000,-0724,0835,12030,026.5,045.4,0.476,735.2,01.18,0.508
2015-04-13 01:52:00,1681E-3,5C000000,-0724,0835,12217,026.6,045.4,0.476,735.2,01.18,0.508
2015-04-13 01:53:00,1772E-3,5C000000,-0724,0834,12207,026.6,045.4,0.476,735.2,01.18,0.508
2015-04-13 01:54:00,1937E-3,5C000000,-0724,0835,12141,026.6,045.4,0.476,735.2,01.18,0.508
2015-04-13 01:55:00,1835E-3,5C000000,-0724,0835,12253,026.6,045.4,0.475,735.2,01.18,0.508
2015-04-13 01:56:00,1794E-3,5C000000,-0724,0835,12136,026.5,045.4,0.476,735.2,01.18,0.508
2015-04-13 01:57:00,1812E-3,5C000000,-0724,0835,12082,026.5,045.4,0.476,735.2,01.18,0.508
2015-04-13 01:58:00,1804E-3,5C000000,-0724,0835,12132,026.5,045.4,0.476,735.2,01.18,0.508
2015-04-13 01:59:00,1812E-3,5C000000,-0724,0835,12203,026.6,045.4,0.476,735.2,01.18,0.508
2015-04-13 02:00:00,1782E-3,5C000000,-0724,0835,12153,026.6,045.4,0.476,735.2,01.18,0.508
2015-04-13 02:01:00,1778E-3,5C000000,-0724,0835,12062,026.5,045.4,0.475,735.2,01.18,0.508
2015-04-13 02:02:00,1825E-3,5C000000,-0724,0835,12064,026.6,045.4,0.475,735.2,01.18,0.508
2015-04-13 02:03:00,1774E-3,5C000000,-0724,0836,12243,026.6,045.4,0.476,735.2,01.18,0.508
2015-04-13 02:04:00,1809E-3,5C000000,-0724,0836,12203,026.6,045.4,0.476,735.2,01.18,0.508
2015-04-13 02:05:00,1851E-3,5C000000,-0724,0835,12223,026.6,045.4,0.476,735.2,01.18,0.508
2015-04-13 02:06:00,1840E-3,5C000000,-0724,0835,12104,026.6,045.4,0.475,735.2,01.18,0.508
2015-04-13 02:07:00,1841E-3,5C000000,-0724,0835,12196,026.6,045.4,0.475,735.2,01.18,0.508
2015-04-13 02:08:00,1842E-3,5C000000,-0724,0836,12189,026.6,045.4,0.476,735.2,01.18,0.508
2015-04-13 02:09:00,1677E-3,5C000000,-0724,0835,12181,026.6,045.4,0.476,735.2,01.18,0.508
2015-04-13 02:10:00,1868E-3,5C000000,-0724,0835,12281,026.6,045.4,0.476,735.2,01.18,0.508
2015-04-13 02:11:00,1871E-3,5C000000,-0724,0835,12205,026.6,045.4,0.476,735.2,01.18,0.508
2015-04-13 02:12:00,1733E-3,5C000000,-0724,0835,11862,026.6,045.4,0.475,735.2,01.18,0.508
2015-04-13 02:13:00,1754E-3,5C000000,-0724,0835,12124,026.6,045.4,0.475,735.2,01.18,0.508
2015-04-13 02:14:00,1872E-3,5C000000,-0724,0835,12126,026.6,045.4,0.476,735.1,01.18,0.508
2015-04-13 02:15:00,1739E-3,5C000000,-0724,0835,12076,026.6,045.4,0.476,735.1,01.18,0.508
2015-04-13 02:16:00,1802E-3,5C000000,-0724,0834,12282,026.6,045.4,0.476,735.2,01.18,0.508
2015-04-13 02:17:00,1747E-3,5C000000,-0724,0835,12177,026.7,045.4,0.475,735.2,01.18,0.508
2015-04-13 02:18:00,1789E-3,5C000000,-0724,0835,11971,026.6,045.4,0.476,735.1,01.18,0.508
2015-04-13 02:19:00,1728E-3,5C000000,-0724,0834,12112,026.6,045.4,0.476,735.1,01.18,0.508
2015-04-13 02:20:00,1761E-3,5C000000,-0724,0835,12122,026.7,045.4,0.476,735.2,01.18,0.508
2015-04-13 02:21:00,1889E-3,5C000000,-0724,0835,12126,026.7,045.4,0.475,735.2,01.18,0.508
2015-04-13 02:22:00,1963E-3,5C000000,-0724,0835,12245,026.6,045.4,0.475,735.2,01.18,0.508
2015-04-13 02:23:00,1787E-3,5C000000,-0724,0835,12149,026.7,045.4,0.476,735.2,01.18,0.508
2015-04-13 02:24:00,1768E-3,5C000000,-0724,0836,12125,026.7,045.4,0.476,735.2,01.18,0.508
2015-04-13 02:25:00,1772E-3,5C000000,-0724,0835,12142,026.7,045.4,0.476,735.2,01.18,0.508
2015-04-13 02:26:00,1703E-3,5C000000,-0724,0836,12066,026.7,045.4,0.475,735.2,01.18,0.508
2015-04-13 02:27:00,1798E-3,5C000000,-0724,0836,12117,026.7,045.4,0.475,735.2,01.18,0.508
2015-04-13 02:28:00,1692E-3,5C000000,-0724,0835,12165,026.7,045.4,0.476,735.2,01.18,0.508
2015-04-13 02:29:00,1794E-3,5C000000,-0724,0835,11985,026.7,045.4,0.476,735.2,01.18,0.508
2015-04-13 02:30:00,1681E-3,5C000000,-0724,0835,12156,026.7,045.4,0.476,735.2,01.18,0.508
2015-04-13 02:31:00,1833E-3,5C000000,-0724,0836,12202,026.7,045.4,0.475,735.2,01.18,0.508
2015-04-13 02:32:00,1874E-3,5C000000,-0724,0836,12171,026.7,045.4,0.475,735.2,01.18,0.508
2015-04-13 02:33:00,1727E-3,5C000000,-0724,0835,12082,026.7,045.4,0.476,735.2,01.18,0.508
2015-04-13 02:34:00,1815E-3,5C000000,-0724,0835,12202,026.7,045.4,0.476,735.2,01.18,0.508
2015-04-13 02:35:00,1763E-3,5C000000,-0724,0836,12163,026.8,045.4,0.476,735.2,01.18,0.508
2015-04-13 02:36:00,1737E-3,5C000000,-0724,0835,12178,026.7,045.4,0.475,735.3,01.18,0.508
2015-04-13 02:37:00,1920E-3,5C000000,-0724,0835,12214,026.8,045.4,0.475,735.3,01.18,0.508
2015-04-13 02:38:00,1856E-3,5C000000,-0724,0835,12071,026.8,045.4,0.476,735.3,01.18,0.508
2015-04-13 02:39:00,1802E-3,5C000000,-0724,0836,12235,026.7,045.4,0.476,735.3,01.18,0.508
2015-04-13 02:40:00,1812E-3,5C000000,-0724,0836,12079,026.8,045.4,0.475,735.3,01.18,0.508
2015-04-13 02:41:00,1843E-3,5C000000,-0724,0835,11881,026.7,045.4,0.475,735.3,01.18,0.508
2015-04-13 02:42:00,1850E-3,5C000000,-0724,0834,12040,026.8,045.4,0.476,735.3,01.18,0.508
2015-04-13 02:43:00,1816E-3,5C000000,-0724,0835,12226,026.8,045.4,0.476,735.3,01.18,0.508
2015-04-13 02:44:00,1828E-3,5C000000,-0724,0836,12201,026.8,045.4,0.476,735.3,01.18,0.508
2015-04-13 02:45:00,1911E-3,5C000000,-0724,0835,12090,026.8,045.4,0.475,735.3,01.18,0.508
2015-04-13 02:46:00,1786E-3,5C000000,-0724,0836,12002,026.8,045.4,0.475,735.3,01.18,0.508
2015-04-13 02:47:00,1846E-3,5C000000,-0724,0835,12221,026.8,045.4,0.476,735.3,01.18,0.508
2015-04-13 02:48:00,1852E-3,5C000000,-0724,0836,12287,026.8,045.4,0.476,735.3,01.18,0.508
2015-04-13 02:49:00,1710E-3,5C000000,-0724,0835,12181,026.8,045.4,0.475,735.3,01.18,0.508
2015-04-13 02:50:00,1816E-3,5C000000,-0724,0835,12032,026.8,045.4,0.475,735.3,01.18,0.508
2015-04-13 02:51:00,1956E-3,5C000000,-0724,0837,12277,026.8,045.4,0.476,735.3,01.18,0.508
2015-04-13 02:52:00,1994E-3,5C000000,-0724,0835,12095,026.8,045.4,0.476,735.3,01.18,0.508
2015-04-13 02:53:00,1872E-3,5C000000,-0724,0835,12196,026.8,045.4,0.476,735.3,01.18,0.508
2015-04-13 02:54:00,1879E-3,5C000000,-0724,0835,12013,026.8,045.4,0.475,735.3,01.18,0.508
2015-04-13 02:55:00,1891E-3,5C000000,-0724,0835,12168,026.9,045.4,0.476,735.3,01.18,0.508
2015-04-13 02:56:00,1627E-3,5C000000,-0724,0835,12213,026.9,045.4,0.476,735.3,01.18,0.508
2015-04-13 02:57:00,1947E-3,5C000000,-0724,0835,12276,026.8,045.4,0.476,735.3,01.18,0.508
2015-04-13 02:58:00,1921E-3,5C000000,-0724,0835,12185,026.9,045.4,0.475,735.3,01.18,0.508
2015-04-13 02:59:00,1795E-3,5C000000,-0724,0835,12130,026.8,045.4,0.475,735.3,01.18,0.508
2015-04-13 03:00:00,1884E-3,5C000000,-0724,0834,12107,026.9,045.4,0.476,735.3,01.18,0.508
2015-04-13 03:01:00,1981E-3,5C000000,-0724,0835,12118,026.9,045.4,0.476,735.3,01.18,0.508
2015-04-13 03:02:00,1851E-3,5C000000,-0724,0836,12176,026.9,045.4,0.475,735.3,01.18,0.508
2015-04-13 03:03:00,1812E-3,5C000000,-0724,0836,12110,026.9,045.4,0.475,735.3,01.18,0.508
2015-04-13 03:04:00,1756E-3,5C000000,-0724,0835,12202,026.9,045.4,0.475,735.3,01.18,0.508
2015-04-13 03:05:00,1777E-3,5C000000,-0724,0835,12114,026.9,045.4,0.476,735.3,01.18,0.508
2015-04-13 03:06:00,1812E-3,5C000000,-0724,0835,11984,026.9,045.4,0.476,735.3,01.18,0.508
2015-04-13 03:07:00,1731E-3,5C000000,-0724,0835,12018,026.9,045.4,0.475,735.3,01.18,0.508
2015-04-13 03:08:00,1777E-3,5C000000,-0724,0835,12086,026.9,045.4,0.475,735.3,01.18,0.508
2015-04-13 03:09:00,1865E-3,5C000000,-0724,0835,12149,027.0,045.4,0.476,735.3,01.18,0.508
2015-04-13 03:10:00,1816E-3,5C000000,-0724,0835,12060,027.0,045.4,0.476,735.3,01.18,0.508
2015-04-13 03:11:00,1725E-3,5C000000,-0724,0836,12096,026.9,045.4,0.475,735.3,01.18,0.508
2015-04-13 03:12:00,1829E-3,5C000000,-0724,0835,11932,026.9,045.4,0.475,735.3,01.18,0.508
2015-04-13 03:13:00,1709E-3,5C000000,-0724,0836,12241,026.9,045.4,0.475,735.3,01.18,0.508
2015-04-13 03:14:00,1865E-3,5C000000,-0724,0835,12213,026.9,045.4,0.476,735.3,01.18,0.508
2015-04-13 03:15:00,1840E-3,5C000000,-0724,0835,12149,027.0,045.4,0.476,735.3,01.18,0.508
2015-04-13 03:16:00,1712E-3,5C000000,-0724,0835,11960,027.0,045.4,0.475,735.3,01.18,0.508
2015-04-13 03:17:00,1927E-3,5C000000,-0724,0836,12102,027.0,045.4,0.475,735.3,01.18,0.508
2015-04-13 03:18:00,1960E-3,5C000000,-0724,0835,12293,027.0,045.4,0.476,735.3,01.18,0.508
2015-04-13 03:19:00,1904E-3,5C000000,-0724,0835,12231,027.0,045.4,0.476,735.3,01.18,0.508
2015-04-13 03:20:00,1830E-3,5C000000,-0724,0836,12254,027.0,045.4,0.475,735.3,01.18,0.508
2015-04-13 03:21:00,1905E-3,5C000000,-0724,0835,12120,027.0,045.4,0.475,735.3,01.18,0.508
2015-04-13 03:22:00,1755E-3,5C000000,-0724,0835,12191,027.0,045.4,0.476,735.3,01.18,0.508
2015-04-13 03:23:00,1831E-3,5C000000,-0724,0836,12071,027.0,045.4,0.476,735.3,01.18,0.508
2015-04-13 03:24:00,1917E-3,5C000000,-0724,0836,12267,027.0,045.4,0.475,735.3,01.18,0.508
2015-04-13 03:25:00,1837E-3,5C000000,-0724,0836,12046,027.0,045.4,0.475,735.3,01.18,0.508
2015-04-13 03:26:00,1844E-3,5C000000,-0724,0836,12177,027.0,045.4,0.476,735.3,01.18,0.508
2015-04-13 03:27:00,1725E-3,5C000000,-0724,0836,12075,027.0,045.4,0.475,735.3,01.18,0.508
2015-04-13 03:28:00,1852E-3,5C000000,-0724,0836,12051,027.0,045.4,0.475,735.3,01.18,0.508
2015-04-13 03:29:00,1950E-3,5C000000,-0724,0836,12277,027.0,045.4,0.475,735.3,01.18,0.508
2015-04-13 03:30:00,1828E-3,5C000000,-0724,0835,12177,027.0,045.4,0.476,735.3,01.18,0.508
2015-04-13 03:31:00,1842E-3,5C000000,-0724,0836,11905,027.0,045.4,0.475,735.3,01.18,0.508
2015-04-13 03:32:00,1842E-3,5C000000,-0724,0835,12247,027.1,045.4,0.475,735.3,01.18,0.508
2015-04-13 03:33:00,1654E-3,5C000000,-0724,0836,12204,027.1,045.4,0.475,735.3,01.18,0.508
2015-04-13 03:34:00,1918E-3,5C000000,-0724,0835,12148,027.1,045.4,0.476,735.3,01.18,0.508
2015-04-13 03:35:00,1841E-3,5C000000,-0724,0836,12217,027.1,045.4,0.476,735.3,01.18,0.508
2015-04-13 03:36:00,1890E-3,5C000000,-0724,0836,12108,027.1,045.4,0.475,735.3,01.18,0.508
2015-04-13 03:37:00,1831E-3,5C000000,-0724,0836,12130,027.1,045.4,0.475,735.3,01.18,0.508
2015-04-13 03:38:00,1801E-3,5C000000,-0724,0836,12176,027.1,045.4,0.475,735.3,01.18,0.508
2015-04-13 03:39:00,1809E-3,5C000000,-0724,0835,12007,027.1,045.4,0.476,735.3,01.18,0.508
2015-04-13 03:40:00,1746E-3,5C000000,-0724,0835,12074,027.1,045.4,0.475,735.3,01.18,0.508
2015-04-13 03:41:00,1836E-3,5C000000,-0724,0835,12111,027.1,045.4,0.475,735.3,01.18,0.508
2015-04-13 03:42:00,1939E-3,5C000000,-0724,0836,12197,027.1,045.4,0.475,735.3,01.18,0.508
2015-04-13 03:43:00,1853E-3,5C000000,-0724,0835,12082,027.1,045.4,0.475,735.3,01.18,0.508
2015-04-13 03:44:00,1891E-3,5C000000,-0724,0835,12256,027.1,045.4,0.475,735.3,01.18,0.508
2015-04-13 03:45:00,1769E-3,5C000000,-0724,0836,12179,027.1,045.4,0.475,735.3,01.18,0.508
2015-04-13 03:46:00,1705E-3,5C000000,-0724,0835,12154,027.2,045.4,0.476,735.3,01.18,0.508
2015-04-13 03:47:00,1776E-3,5C000000,-0724,0835,12118,027.2,045.4,0.475,735.3,01.18,0.508
2015-04-13 03:48:00,1720E-3,5C000000,-0724,0835,12236,027.1,045.4,0.475,735.3,01.18,0.508
2015-04-13 03:49:00,1723E-3,5C000000,-0724,0834,12093,027.1,045.4,0.475,735.3,01.18,0.508
2015-04-13 03:50:00,1848E-3,5C000000,-0724,0835,12262,027.2,045.4,0.476,735.3,01.18,0.508
2015-04-13 03:51:00,1829E-3,5C000000,-0724,0836,12160,027.2,045.4,0.475,735.2,01.18,0.508
2015-04-13 03:52:00,1804E-3,5C000000,-0724,0836,12251,027.2,045.4,0.475,735.3,01.18,0.508
2015-04-13 03:53:00,1758E-3,5C000000,-0724,0836,12216,027.1,045.4,0.475,735.2,01.18,0.508
2015-04-13 03:54:00,1675E-3,5C000000,-0724,0836,12142,027.2,045.4,0.475,735.3,01.18,0.508
2015-04-13 03:55:00,1676E-3,5C000000,-0724,0835,12108,027.2,045.4,0.476,735.3,01.18,0.508
2015-04-13 03:56:00,1848E-3,5C000000,-0724,0836,12317,027.2,045.4,0.475,735.3,01.18,0.508
2015-04-13 03:57:00,1850E-3,5C000000,-0724,0835,12108,027.2,045.4,0.475,735.3,01.18,0.508
2015-04-13 03:58:00,1796E-3,5C000000,-0724,0836,12185,027.2,045.4,0.475,735.3,01.18,0.508
2015-04-13 03:59:00,1813E-3,5C000000,-0724,0836,12150,027.2,045.4,0.475,735.3,01.18,0.508
2015-04-13 04:00:00,1813E-3,5C000000,-0724,0835,12046,027.2,045.4,0.475,735.3,01.18,0.508
2015-04-13 04:01:00,1824E-3,5C000000,-0724,0835,12221,027.2,045.4,0.475,735.3,01.18,0.508
2015-04-13 04:02:00,1713E-3,5C000000,-0724,0835,12106,027.2,045.4,0.476,735.2,01.18,0.508
2015-04-13 04:03:00,1822E-3,5C000000,-0724,0835,12206,027.2,045.4,0.475,735.2,01.18,0.508
2015-04-13 04:04:00,1851E-3,5C000000,-0724,0835,12209,027.2,045.4,0.475,735.3,01.18,0.508
2015-04-13 04:05:00,1852E-3,5C000000,-0724,0835,12200,027.2,045.4,0.475,735.2,01.18,0.508
2015-04-13 04:06:00,1821E-3,5C000000,-0724,0836,12129,027.2,045.4,0.476,735.2,01.18,0.508
2015-04-13 04:07:00,1873E-3,5C000000,-0724,0835,12054,027.2,045.4,0.475,735.2,01.18,0.508
2015-04-13 04:08:00,1774E-3,5C000000,-0724,0835,12142,027.2,045.4,0.475,735.2,01.18,0.508
2015-04-13 04:09:00,1805E-3,5C000000,-0724,0835,12106,027.3,045.4,0.476,735.2,01.18,0.508
2015-04-13 04:10:00,1840E-3,5C000000,-0724,0835,12222,027.3,045.4,0.475,735.2,01.18,0.508
2015-04-13 04:11:00,1787E-3,5C000000,-0724,0835,12042,027.2,045.4,0.475,735.2,01.18,0.508
2015-04-13 04:12:00,1950E-3,5C000000,-0724,0835,12193,027.3,045.4,0.476,735.2,01.18,0.508
2015-04-13 04:13:00,1789E-3,5C000000,-0724,0835,12140,027.3,045.4,0.475,735.2,01.18,0.508
2015-04-13 04:14:00,1755E-3,5C000000,-0724,0835,12150,027.3,045.4,0.475,735.2,01.18,0.508
2015-04-13 04:15:00,1915E-3,5C000000,-0724,0835,12078,027.3,045.4,0.476,735.2,01.18,0.508
2015-04-13 04:16:00,1849E-3,5C000000,-0724,0835,12192,027.3,045.4,0.475,735.2,01.18,0.508
2015-04-13 04:17:00,1850E-3,5C000000,-0724,0835,12108,027.3,045.4,0.475,735.2,01.18,0.508
2015-04-13 04:18:00,1821E-3,5C000000,-0724,0834,12089,027.3,045.4,0.475,735.2,01.18,0.508
2015-04-13 04:19:00,1790E-3,5C000000,-0724,0836,12136,027.3,045.4,0.475,735.2,01.18,0.508
2015-04-13 04:20:00,1749E-3,5C000000,-0724,0836,12232,027.3,045.4,0.475,735.1,01.18,0.508